Location: Fort Hays State University
(38.8712°N, 99.3432°W)
Time: 22:57:06
(UTC-06:00)

Cosmos 2279 Rocket - Visible Passes

Search period start: 23 January 2017 00:00
Search period end: 02 February 2017 00:00
Orbit: 964 x 980 km, 82.9° (Epoch: 22 January)

Date Brightness Start Highest point End Pass type
(mag) Time Alt. Az. Time Alt. Az. Time Alt. Az.
23 Jan 7.2 05:47:16 10° E 05:48:04 10° ENE 05:48:51 10° ENE visible
23 Jan 4.0 18:22:59 10° N 18:29:10 65° E 18:35:20 10° SSE visible
23 Jan 6.7 20:09:58 10° NW 20:13:47 17° W 20:17:35 10° WSW visible
24 Jan 6.6 06:07:31 10° SE 06:11:53 21° E 06:16:15 10° NE visible
24 Jan 4.3 18:47:17 10° NNW 18:53:29 71° W 18:59:40 10° S visible
25 Jan 5.6 06:30:17 10° SSE 06:35:53 37° E 06:41:29 10° NNE visible
25 Jan 5.5 19:11:56 10° NNW 19:17:38 39° W 19:23:20 10° SSW visible
26 Jan 4.4 06:53:54 10° S 07:00:01 68° E 07:06:10 10° NNE visible
26 Jan 6.5 19:37:06 10° NW 19:41:38 22° W 19:46:12 10° SW visible
27 Jan 6.8 05:36:10 10° ESE 05:39:45 16° E 05:43:20 10° NE visible
27 Jan 4.1 18:14:56 10° N 18:21:12 88° W 18:27:27 10° S visible
27 Jan 7.1 20:03:53 10° WNW 20:05:29 11° W 20:07:06 10° W visible
28 Jan 5.9 05:58:27 10° SE 06:03:41 30° E 06:08:56 10° NNE visible
28 Jan 5.1 18:39:27 10° NNW 18:45:25 49° W 18:51:22 10° SSW visible
29 Jan 4.8 06:21:47 10° SSE 06:27:46 54° E 06:33:46 10° NNE visible
29 Jan 6.2 19:04:24 10° NNW 19:09:29 27° W 19:14:34 10° SW visible
30 Jan 7.0 05:05:13 10° ESE 05:07:37 12° E 05:10:03 10° NE visible
30 Jan 4.0 06:45:50 10° S 06:52:00 84° W 06:58:14 10° N visible
30 Jan 6.9 19:30:13 10° NW 19:33:23 15° W 19:36:34 10° WSW visible
31 Jan 6.2 05:26:44 10° SE 05:31:30 24° E 05:36:17 10° NE visible
31 Jan 4.2 07:10:30 10° SSW 07:16:24 47° WNW 07:22:21 10° N visible
01 Feb 5.2 05:49:45 10° SSE 05:55:32 43° E 06:01:20 10° NNE visible
01 Feb 5.9 18:31:48 10° NNW 18:37:18 34° W 18:42:48 10° SSW visible
